Previsão horária em Celestynowo

Hoje, 2 Agosto, Segunda-feira

Tempo Temperatura Precipitação Vento Pressão Humidade
00:00 +14°C° 0 mm 3 m/s 748 mmHg 92%
01:00 +13°C° 0 mm 3 m/s 748 mmHg 93%
02:00 +13°C° 0 mm 3 m/s 748 mmHg 94%
03:00 +13°C° 0 mm 3 m/s 748 mmHg 94%
04:00 +13°C° 0 mm 3 m/s 748 mmHg 95%
05:00 +14°C° 0 mm 4 m/s 748 mmHg 91%
06:00 +15°C° 0 mm 4 m/s 749 mmHg 87%
07:00 +16°C° 0 mm 5 m/s 749 mmHg 83%
08:00 +17°C° 0 mm 6 m/s 750 mmHg 73%
09:00 +20°C° 0 mm 6 m/s 750 mmHg 63%
10:00 +21°C° 0 mm 6 m/s 750 mmHg 52%
11:00 +21°C° 0 mm 6 m/s 750 mmHg 49%
12:00 +22°C° 0 mm 7 m/s 750 mmHg 46%
13:00 +22°C° 0 mm 7 m/s 750 mmHg 43%
14:00 +22°C° 0 mm 7 m/s 750 mmHg 40%
15:00 +23°C° 0 mm 7 m/s 750 mmHg 37%
16:00 +24°C° 0 mm 7 m/s 750 mmHg 34%
17:00 +23°C° 0 mm 6 m/s 750 mmHg 37%
18:00 +22°C° 0 mm 5 m/s 750 mmHg 40%
19:00 +20°C° 0 mm 4 m/s 751 mmHg 43%
20:00 +19°C° 0 mm 4 m/s 751 mmHg 49%
21:00 +17°C° 0 mm 3 m/s 751 mmHg 55%
22:00 +14°C° 0 mm 3 m/s 752 mmHg 61%
23:00 +14°C° 0 mm 3 m/s 752 mmHg 65%

Amanhã, 3 Agosto, Terça-feira

Tempo Temperatura Precipitação Vento Pressão Humidade
00:00 +13°C° 0 mm 3 m/s 752 mmHg 68%
01:00 +13°C° 0 mm 3 m/s 753 mmHg 72%
02:00 +13°C° 0 mm 3 m/s 753 mmHg 77%
03:00 +12°C° 0 mm 3 m/s 753 mmHg 82%
04:00 +12°C° 0 mm 3 m/s 753 mmHg 87%
05:00 +13°C° 0 mm 3 m/s 753 mmHg 81%
06:00 +16°C° 0 mm 3 m/s 753 mmHg 75%
07:00 +17°C° 0 mm 3 m/s 754 mmHg 68%
08:00 +19°C° 0 mm 3 m/s 754 mmHg 61%
09:00 +20°C° 0 mm 3 m/s 754 mmHg 53%
10:00 +22°C° 0 mm 4 m/s 754 mmHg 45%
11:00 +22°C° 0 mm 3 m/s 754 mmHg 44%
12:00 +24°C° 0 mm 3 m/s 753 mmHg 42%
13:00 +24°C° 0 mm 3 m/s 753 mmHg 40%
14:00 +24°C° 0 mm 3 m/s 753 mmHg 41%
15:00 +24°C° 0 mm 2 m/s 753 mmHg 42%
16:00 +24°C° 0 mm 1 m/s 752 mmHg 43%
17:00 +23°C° 0.1 mm 1 m/s 752 mmHg 48%
18:00 +22°C° 0.1 mm 1 m/s 753 mmHg 53%
19:00 +20°C° 0.1 mm 1 m/s 753 mmHg 58%
20:00 +19°C° 0.1 mm 2 m/s 753 mmHg 61%
21:00 +18°C° 0.1 mm 2 m/s 753 mmHg 64%
22:00 +17°C° 0.1 mm 2 m/s 753 mmHg 68%
23:00 +16°C° 0 mm 2 m/s 753 mmHg 71%

Depois de amanhã, 4 Agosto, Quarta-feira

Tempo Temperatura Precipitação Vento Pressão Humidade
00:00 +16°C° 0 mm 2 m/s 753 mmHg 75%
01:00 +15°C° 0 mm 2 m/s 753 mmHg 79%
02:00 +15°C° 0 mm 2 m/s 753 mmHg 82%
03:00 +15°C° 0 mm 2 m/s 753 mmHg 85%
04:00 +15°C° 0 mm 2 m/s 752 mmHg 88%
05:00 +16°C° 0 mm 1 m/s 753 mmHg 82%
06:00 +19°C° 0 mm 1 m/s 753 mmHg 76%
07:00 +20°C° 0 mm 1 m/s 753 mmHg 70%
08:00 +22°C° 0 mm 1 m/s 753 mmHg 62%
09:00 +24°C° 0 mm 1 m/s 753 mmHg 55%
10:00 +26°C° 0 mm 2 m/s 752 mmHg 48%
11:00 +26°C° 0 mm 2 m/s 752 mmHg 45%
12:00 +27°C° 0 mm 2 m/s 752 mmHg 42%
13:00 +27°C° 0 mm 3 m/s 752 mmHg 40%
14:00 +26°C° 0 mm 2 m/s 752 mmHg 42%
15:00 +26°C° 0 mm 2 m/s 751 mmHg 45%
16:00 +25°C° 0 mm 2 m/s 751 mmHg 47%
17:00 +24°C° 0 mm 2 m/s 751 mmHg 51%
18:00 +23°C° 0 mm 2 m/s 751 mmHg 55%
19:00 +21°C° 0 mm 2 m/s 751 mmHg 58%
20:00 +20°C° 0.1 mm 2 m/s 752 mmHg 64%
21:00 +19°C° 0.1 mm 2 m/s 752 mmHg 69%
22:00 +18°C° 0.1 mm 2 m/s 752 mmHg 75%
23:00 +18°C° 0 mm 2 m/s 752 mmHg 74%

5 Agosto, Quinta-feira

Tempo Temperatura Precipitação Vento Pressão Humidade
00:00 +18°C° 0 mm 2 m/s 752 mmHg 74%
01:00 +18°C° 0 mm 2 m/s 752 mmHg 74%
02:00 +18°C° 0 mm 2 m/s 751 mmHg 75%
03:00 +17°C° 0 mm 2 m/s 751 mmHg 75%
04:00 +17°C° 0 mm 2 m/s 751 mmHg 76%
05:00 +17°C° 0.1 mm 2 m/s 751 mmHg 78%
06:00 +17°C° 0.1 mm 2 m/s 751 mmHg 79%
07:00 +18°C° 0.1 mm 1 m/s 751 mmHg 81%
08:00 +18°C° 0.1 mm 1 m/s 751 mmHg 80%
09:00 +19°C° 0.1 mm 1 m/s 751 mmHg 79%
10:00 +19°C° 0.1 mm 1 m/s 751 mmHg 79%
11:00 +19°C° 0.1 mm 1 m/s 751 mmHg 76%
12:00 +20°C° 0.1 mm 1 m/s 751 mmHg 73%
13:00 +20°C° 0.1 mm 2 m/s 750 mmHg 70%
14:00 +20°C° 0 mm 2 m/s 750 mmHg 68%
15:00 +21°C° 0 mm 2 m/s 750 mmHg 66%
16:00 +21°C° 0 mm 2 m/s 750 mmHg 64%
17:00 +20°C° 0.2 mm 2 m/s 749 mmHg 69%
18:00 +19°C° 0.2 mm 2 m/s 749 mmHg 74%
19:00 +19°C° 0.2 mm 2 m/s 749 mmHg 80%
20:00 +18°C° 0 mm 2 m/s 749 mmHg 83%
21:00 +17°C° 0 mm 2 m/s 749 mmHg 87%
22:00 +16°C° 0 mm 2 m/s 749 mmHg 90%
23:00 +16°C° 0 mm 2 m/s 748 mmHg 89%

6 Agosto, Sexta-feira

Tempo Temperatura Precipitação Vento Pressão Humidade
00:00 +16°C° 0 mm 2 m/s 748 mmHg 88%
01:00 +16°C° 0 mm 2 m/s 748 mmHg 88%
02:00 +15°C° 0 mm 2 m/s 748 mmHg 88%
03:00 +15°C° 0 mm 2 m/s 747 mmHg 89%
04:00 +13°C° 0 mm 3 m/s 747 mmHg 90%
05:00 +16°C° 0 mm 3 m/s 747 mmHg 84%
06:00 +17°C° 0 mm 3 m/s 747 mmHg 77%
07:00 +18°C° 0 mm 4 m/s 747 mmHg 71%
08:00 +20°C° 0 mm 4 m/s 747 mmHg 64%
09:00 +22°C° 0 mm 5 m/s 747 mmHg 56%
10:00 +24°C° 0 mm 6 m/s 747 mmHg 49%
11:00 +26°C° 0 mm 6 m/s 746 mmHg 46%
12:00 +26°C° 0 mm 6 m/s 746 mmHg 44%
13:00 +27°C° 0 mm 6 m/s 746 mmHg 41%
14:00 +27°C° 0 mm 6 m/s 746 mmHg 42%
15:00 +26°C° 0 mm 6 m/s 746 mmHg 44%
16:00 +26°C° 0 mm 6 m/s 746 mmHg 45%
17:00 +25°C° 0.1 mm 5 m/s 747 mmHg 48%
18:00 +23°C° 0.1 mm 5 m/s 747 mmHg 51%
19:00 +23°C° 0.1 mm 4 m/s 747 mmHg 54%
20:00 +21°C° 0.2 mm 4 m/s 747 mmHg 62%
21:00 +20°C° 0.2 mm 4 m/s 748 mmHg 70%
22:00 +18°C° 0.2 mm 4 m/s 748 mmHg 78%
23:00 +18°C° 0 mm 4 m/s 748 mmHg 80%

7 Agosto, Sábado

Tempo Temperatura Precipitação Vento Pressão Humidade
00:00 +17°C° 0 mm 4 m/s 749 mmHg 81%
01:00 +15°C° 0 mm 4 m/s 749 mmHg 83%
02:00 +16°C° 0 mm 3 m/s 749 mmHg 85%
03:00 +14°C° 0 mm 3 m/s 749 mmHg 88%
04:00 +14°C° 0 mm 3 m/s 750 mmHg 91%
05:00 +16°C° 0 mm 3 m/s 750 mmHg 86%
06:00 +17°C° 0 mm 3 m/s 750 mmHg 82%
07:00 +18°C° 0 mm 3 m/s 750 mmHg 77%
08:00 +20°C° 0 mm 3 m/s 751 mmHg 70%
09:00 +21°C° 0 mm 3 m/s 751 mmHg 63%
10:00 +24°C° 0 mm 3 m/s 751 mmHg 56%
11:00 +25°C° 0 mm 3 m/s 751 mmHg 51%
12:00 +27°C° 0 mm 4 m/s 751 mmHg 46%
13:00 +28°C° 0 mm 4 m/s 751 mmHg 41%
14:00 +28°C° 0 mm 4 m/s 750 mmHg 39%
15:00 +29°C° 0 mm 4 m/s 750 mmHg 37%
16:00 +29°C° 0 mm 4 m/s 750 mmHg 35%
17:00 +28°C° 0 mm 4 m/s 750 mmHg 40%
18:00 +26°C° 0 mm 3 m/s 750 mmHg 44%
19:00 +25°C° 0 mm 3 m/s 750 mmHg 48%
20:00 +24°C° 0 mm 3 m/s 750 mmHg 52%
21:00 +22°C° 0 mm 3 m/s 750 mmHg 56%
22:00 +21°C° 0 mm 3 m/s 750 mmHg 60%
23:00 +21°C° 0 mm 3 m/s 750 mmHg 59%
Mostrar mais

Necessitamos do seu Consentimento

A Meteoprog e os seus Fornecedores de Serviços podem armazenar e aceder a dados pessoais como cookies, identificadores do dispositivo ou outras tecnologias semelhantes existentes no seu dispositivo e processar estes dados para personalizar conteúdos e anúncios, assim como funcionalidades nas redes sociais e análise de tráfego.

  • Armazenar e/ou aceder a informações no seu dispositivo

    Os cookies, identificadores do dispositivo ou outras informações podem ser armazenados ou acedidos no seu dispositivo, para os fins acima indicados.

  • Anúncios e conteúdos personalizados, medição de anúncios e conteúdos, dados sobre o público-alvo e desenvolvimento de produtos

    Os anúncios e os conteúdos podem ser personalizados com base num perfil. Podem ser adicionados dados adicionais para uma maior personalização dos anúncios e dos conteúdos. A eficácia dos anúncios e dos conteúdos pode ser medida. Podem ser obtidas informações sobre o público que visualizou os anúncios e os conteúdos. Estes dados podem ser usados para desenvolver ou melhorar sistemas, softwares ou a experiência do utilizador.

Ao clicar em "Eu concordo”, permitirá o uso de cookies, identificadores do dispositivo e web beacons mencionados ou outras tecnologias semelhantes. As configurações do navegador do seu dispositivo podem ser alteradas.

Para certos fins, podem ser invocados interesses legítimos ao invés de consentimento. Pode ler mais informação sobre este assunto na nossa Política de Privacidade e Cookies.